Hourly Data Report for October 26, 2014

All times are specified in Local Standard Time (LST). Add 1 hour to adjust for Daylight Saving Time where and when it is observed.

PANGNIRTUNG
NUNAVUT

66°08'36.300" N
65°42'40.500" W
22.60 m
2403049
71826
WXP

Download Data

Hourly Data (October 2014)
Hourly Data Report for October 26, 2014
Temp Definition
°C
Dew Point Temp Definition
°C
Rel Hum Definition
%
Wind Dir Definition
10's deg

Wind Spd Definition
km/h
Visibility Definition
km
Stn Press Definition
kPa
Hmdx Definition


Wind Chill Definition


Weather Definition


TIME
00:00 -10.0 -16.7 58 10 5   101.47   -13 LegendNANA
01:00 -9.5 -16.4 57 12 9   101.50   -14 LegendNANA
02:00 -10.3 -16.9 59 9 5   101.50   -13 LegendNANA
03:00 -10.1 -16.5 59 12 8   101.50   -15 LegendNANA
04:00 -9.2 -16.2 56 10 7   101.51   -13 LegendNANA
05:00 -10.2 -16.9 58 12 9   101.52   -15 LegendNANA
06:00 -10.0 -16.6 59 13 5   101.52   -13 LegendNANA
07:00 -9.4 -16.6 55 16 5   101.54   -12 LegendNANA
08:00 -9.3 -16.7 55 13 8   101.56   -14 LegendNANA
09:00 -9.7 -17.0 55 12 8   101.54   -14 LegendNANA
10:00 -9.8 -17.1 55 14 8   101.55   -14 LegendNANA
11:00 -9.3 -17.2 53 12 7   101.55   -13 LegendNANA
12:00 -10.1 -15.7 64 22 6   101.59   -14 LegendNANA
13:00 -9.4 -15.9 59 17 6   101.61   -13 LegendNANA
14:00 -9.5 -16.5 57 12 8   101.61   -14 LegendNANA
15:00 -10.3 -16.6 60 23 4   101.62   -13 LegendNANA
16:00 -9.7 -14.8 67 23 4   101.65   -12 LegendNANA
17:00 -10.1 -15.8 63 18 4   101.68   -12 LegendNANA
18:00 -9.4 -15.8 60 12 11   101.69   -15 LegendNANA
19:00 -9.4 -16.2 58 13 6   101.70   -13 LegendNANA
20:00 -9.1 -15.5 60 12 8   101.73   -13 LegendNANA
21:00 -9.6 -16.6 57 12 8   101.74   -14 LegendNANA
22:00 -9.4 -16.4 57 12 9   101.74   -14 LegendNANA
23:00 -9.4 -14.4 67 22 8   101.75   -14 LegendNANA

Notes on Data Quality.

Legend

  • E = Estimated
  • M = Missing
  • NA = Not Available
  • ‡ = Partner data that is not subject to review by the National Climate Archives
Date modified: